Location: Little Italy
(37.8008°N, 122.4108°W)
Time: 07:37:12
(UTC+00:00)

Meteor 2-10 Rocket - Pass Details

Date: 29 October 2020
Orbit: 734 x 885 km, 81.2° (Epoch: 02 December)

Event Time Altitude Azimuth Distance (km) Brightness Sun altitude
Rises 13:10:54 0° 356° (N) 3,172 6.6 -16.7°
Reaches altitude 10° 13:13:17 10° 2° (N) 2,251 5.9 -16.2°
Maximum altitude 13:18:11 51° 78° (ENE) 936 4.4 -15.2°
Drops below altitude 10° 13:23:10 10° 154° (SSE) 2,293 6.4 -14.2°
Sets 13:25:37 0° 160° (SSE) 3,237 7.1 -13.8°
